Change the Weather History Date:

Friday, July 4, 2014

  Actual Average Record
Temperature  
Mean Temperature 80 °F -  
Max Temperature 89 °F 87 °F 97 °F (2012)
Min Temperature 69 °F 71 °F 57 °F (2010)
Cooling Degree Days 15    
Growing Degree Days 30 (Base 50)    
Moisture  
Dew Point 60 °F    
Average Humidity 54    
Maximum Humidity 79    
Minimum Humidity 32    
Precipitation  
Precipitation 0.00 in - - ()
Sea Level Pressure  
Sea Level Pressure 30.06 in    
Wind  
Wind Speed 7 mph (NW)    
Max Wind Speed 12 mph    
Max Gust Speed 14 mph    
Visibility 12 miles    
Events      
Averages and records for this station are not official NWS values.
T = Trace of Precipitation, MM = Missing Value Source: NWS Daily Summary

Daily Weather History Graph

Daily Weather History Graph

Search for Another Location

Airport or City:

Trip Planner

Search our weather history database for the weather conditions in past years. The results will help you decide how hot, cold, wet, or windy it might be!

Date:

Astronomy

Jul. 04, 2014 Rise Set
Actual Time 6:08 AM EDT 8:35 PM EDT
Civil Twilight 5:39 AM EDT 9:05 PM EDT
Nautical Twilight 5:03 AM EDT 9:41 PM EDT
Astronomical Twilight 4:22 AM EDT 10:21 PM EDT
Moon 12:47 PM EDT (7/4) 12:12 AM EDT (7/4)
Length of Visible Light 15h 25m
Length of Day
14h 26m
Waxing Crescent, 42% of the Moon is Illuminated
Jul 4
Waxing Crescent
Jul 5
First Quarter
Jul 12
Full
Jul 18
Last Quarter
Jul 26
New

Hourly Weather History & Observations

Time (EDT) Temp. Heat Index Dew Point Humidity Pressure Visibility Wind Dir Wind Speed Gust Speed Precip Events Conditions
12:56 AM 76.1 °F - 69.3 °F 79% 29.93 in 12.0 mi NW 8.1 mph - N/A   Partly Cloudy
1:56 AM 76.1 °F - 67.6 °F 75% 29.96 in 12.0 mi NW 8.1 mph - N/A   Mostly Cloudy
2:56 AM 75.0 °F - 66.2 °F 74% 29.95 in 12.0 mi NNW 6.9 mph - N/A   Clear
3:56 AM 75.0 °F - 64.6 °F 70% 29.97 in 12.0 mi NNW 9.2 mph - N/A   Mostly Cloudy
4:56 AM 73.9 °F - 62.4 °F 67% 29.99 in 12.0 mi NNW 8.1 mph - N/A   Clear
5:56 AM 71.8 °F - 61.9 °F 71% 30.01 in 12.0 mi NW 4.6 mph - N/A   Clear
6:56 AM 71.4 °F - 62.2 °F 73% 30.03 in 12.0 mi NW 4.6 mph - N/A   Partly Cloudy
7:56 AM 74.7 °F - 59.0 °F 58% 30.03 in 12.0 mi North 9.2 mph - N/A   Clear
8:56 AM 77.7 °F - 57.7 °F 50% 30.05 in 12.0 mi North 11.5 mph - N/A   Clear
9:56 AM 80.6 °F 81.1 °F 59.2 °F 48% 30.07 in 12.0 mi North 8.1 mph - N/A   Clear
10:56 AM 82.0 °F 82.1 °F 59.0 °F 45% 30.08 in 12.0 mi North 8.1 mph - N/A   Mostly Cloudy
11:56 AM 83.8 °F 83.8 °F 59.9 °F 44% 30.09 in 12.0 mi NNW 5.8 mph - N/A   Partly Cloudy
12:56 PM 85.5 °F 85.2 °F 59.7 °F 42% 30.08 in 12.0 mi NNW 5.8 mph 13.8 mph N/A   Clear
1:56 PM 87.4 °F 85.9 °F 55.8 °F 34% 30.08 in 12.0 mi WSW 5.8 mph 12.7 mph N/A   Clear
2:56 PM 89.2 °F 87.5 °F 55.9 °F 32% 30.07 in 12.0 mi Variable 5.8 mph - N/A   Clear
3:56 PM 87.4 °F 86.3 °F 57.7 °F 36% 30.07 in 12.0 mi Variable 6.9 mph - N/A   Clear
4:56 PM 87.8 °F 86.3 °F 55.9 °F 34% 30.07 in 12.0 mi West 4.6 mph - N/A   Partly Cloudy
5:56 PM 86.2 °F 85.6 °F 59.5 °F 40% 30.07 in 12.0 mi WNW 5.8 mph - N/A   Partly Cloudy
6:56 PM 85.8 °F 84.7 °F 56.7 °F 37% 30.08 in 12.0 mi WNW 8.1 mph - N/A   Clear
7:56 PM 84.2 °F 83.7 °F 58.3 °F 41% 30.10 in 12.0 mi WNW 3.5 mph - N/A   Partly Cloudy
8:56 PM 80.4 °F 81.3 °F 60.6 °F 51% 30.12 in 12.0 mi NNW 3.5 mph - N/A   Clear
9:56 PM 76.6 °F - 59.4 °F 55% 30.14 in 12.0 mi Variable 3.5 mph - N/A   Partly Cloudy
10:56 PM 71.1 °F - 61.9 °F 73% 30.16 in 12.0 mi North 2.3 mph - N/A   Clear
11:56 PM 69.3 °F - 59.5 °F 71% 30.17 in 12.0 mi NNW 4.6 mph - N/A   Clear